NOZ1208 ENGM-ENEV

Flight info

Callsign NOZ1208
Flight time N/A
Altitude 34000
Route RIBBE DCT GIGNI/N0467F330 DCT SOMUB DCT PENNO
Aircraft B738/M-SDE2E3FGHIRWXY/LB1

Departure

Time N/A
Airport Oslo-Gardermoen International Airport (ENGM)

Arrival

Time 2026-04-25 14:08
Airport Harstad/Narvik Airport (ENEV)
Time Latitude Longitude Altitude Speed Heading
2026-04-25 13:56 67.56438 15.68794 16222 ft 323 kts 19°
2026-04-25 13:57 67.61022 15.73858 15385 ft 314 kts 19°
2026-04-25 13:57 67.62354 15.75332 15086 ft 314 kts 19°
2026-04-25 13:57 67.65027 15.78285 14570 ft 311 kts 19°
2026-04-25 13:57 67.67019 15.80488 14172 ft 310 kts 19°
2026-04-25 13:58 67.69012 15.82695 13737 ft 310 kts 19°
2026-04-25 13:58 67.70996 15.84898 13324 ft 309 kts 19°
2026-04-25 13:58 67.72967 15.87093 12927 ft 306 kts 19°
2026-04-25 13:58 67.74893 15.89242 12531 ft 303 kts 19°
2026-04-25 13:59 67.76831 15.91406 12148 ft 302 kts 19°
2026-04-25 13:59 67.78771 15.93575 11768 ft 303 kts 19°
2026-04-25 13:59 67.82193 15.97407 11070 ft 312 kts 19°
2026-04-25 13:59 67.90033 16.06265 10001 ft 290 kts 19°
2026-04-25 14:00 67.93683 16.10408 9828 ft 271 kts 19°
2026-04-25 14:00 67.99653 16.17151 9184 ft 252 kts 18°
2026-04-25 14:00 68.06051 16.24401 8104 ft 247 kts 18°
2026-04-25 14:00 68.11277 16.30363 7231 ft 246 kts 19°
2026-04-25 14:01 68.12848 16.32161 7060 ft 244 kts 19°
2026-04-25 14:01 68.14410 16.33944 7044 ft 248 kts 19°
2026-04-25 14:01 68.15981 16.35754 7009 ft 241 kts 19°
2026-04-25 14:01 68.17493 16.37505 6966 ft 234 kts 19°
2026-04-25 14:02 68.18959 16.39267 6820 ft 229 kts 22°
2026-04-25 14:02 68.20396 16.41256 6456 ft 234 kts 24°
2026-04-25 14:02 68.21817 16.43318 6292 ft 231 kts 24°
2026-04-25 14:02 68.22295 16.44015 6164 ft 233 kts 24°
2026-04-25 14:03 68.24700 16.47486 5609 ft 236 kts 24°
2026-04-25 14:03 68.26144 16.49538 5327 ft 235 kts 23°
2026-04-25 14:03 68.27586 16.51560 5074 ft 233 kts 24°
2026-04-25 14:03 68.29024 16.53597 4761 ft 235 kts 23°
2026-04-25 14:04 68.30482 16.55657 4463 ft 236 kts 24°
2026-04-25 14:04 68.31930 16.57725 4270 ft 231 kts 24°
2026-04-25 14:04 68.33305 16.59685 4192 ft 217 kts 24°
2026-04-25 14:04 68.34660 16.61129 4081 ft 203 kts
2026-04-25 14:05 68.36023 16.61806 3744 ft 198 kts
2026-04-25 14:05 68.37353 16.62520 3470 ft 193 kts
2026-04-25 14:05 68.38666 16.63255 3014 ft 192 kts
2026-04-25 14:05 68.39951 16.64048 2628 ft 185 kts
2026-04-25 14:06 68.41179 16.64841 2221 ft 179 kts 10°
2026-04-25 14:06 68.42369 16.65526 1788 ft 174 kts
2026-04-25 14:06 68.43519 16.66154 1418 ft 163 kts
2026-04-25 14:06 68.44572 16.66771 1123 ft 148 kts 12°
2026-04-25 14:07 68.45540 16.67356 964 ft 136 kts 11°
2026-04-25 14:07 68.46484 16.67896 662 ft 140 kts
2026-04-25 14:07 68.47435 16.68013 279 ft 131 kts 355°
2026-04-25 14:07 68.48284 16.67915 97 ft 113 kts 354°
2026-04-25 14:08 68.48924 16.67824 95 ft 63 kts 358°
2026-04-25 14:08 68.49160 16.67867 94 ft 18 kts 50°
2026-04-25 14:08 68.49144 16.68174 90 ft 17 kts 165°
2026-04-25 14:08 68.49059 16.68195 88 ft 11 kts 176°
2026-04-25 14:09 68.48990 16.68208 87 ft 10 kts 176°
2026-04-25 14:09 68.48923 16.68221 90 ft 10 kts 170°
2026-04-25 14:09 68.48891 16.68360 93 ft 9 kts 91°
2026-04-25 14:09 68.48891 16.68420 94 ft 9 kts 91°
2026-04-25 14:10 68.48960 16.68519 90 ft 2 kts 358°
2026-04-25 14:10 68.48977 16.68518 92 ft 2 kts 357°
2026-04-25 14:10 68.48978 16.68517 92 ft 0 kts 358°